Regional Weather Roundup
Issued by NWS

Home | Current Version | Previous Version | Text Only | Print | Product List | Glossary On
Versions: 1 2 3 4 5 6 7 8 9 10 11 12 13 14 15 16 17 18 19 20 21 22 23 24 25 26 27 28 29 30 31 32 33 34 35 36 37 38 39 40 41 42 43 44 45 46 47 48 49 50
817
ASUS44 KMEG 121210
RWRTN
TENNESSEE HOURLY STATE WEATHER ROUNDUP
NATIONAL WEATHER SERVICE MEMPHIS TN
600 AM CST FRI FEB 12 2016

TNZ002-004-019-021-049-052-054-088>092-121300-
WEST TENNESSEE

CITY           SKY/WX    TMP DP  RH WIND       PRES   REMARKS
MEMPHIS INTL   CLEAR     33  24  69 CALM      30.17R
NWS MEMPHIS      N/A     29 N/A N/A MISG        N/A
JACKSON        PTCLDY    32  24  72 CALM      30.18R
DYERSBURG      PTCLDY    30  21  69 CALM      30.21R
UNION CITY     MOCLDY    30  21  69 CALM      30.18S
PARIS          CLOUDY    28  19  69 E3        30.17R
LEXINGTON      MOCLDY    30  21  69 N3        30.16R
$$

TNZ008-025-027-028-033-062-065-066-121300-
NORTH MIDDLE TENNESSEE

CITY           SKY/WX    TMP DP  RH WIND       PRES   REMARKS
NASHVILLE      FLURRIES  34  22  61 N6        30.19R WCI  29
CLARKSVILLE    CLOUDY    29  23  78 E5        30.18F WCI  24
SMYRNA         CLOUDY    33  25  73 N6        30.21R WCI  27
COOKEVILLE     CLOUDY    28  27  93 CALM      30.15R
CROSSVILLE     LGT SNOW  30  26  85 CALM      30.12S VSB 3/4
$$

TNZ061-075-076-078-094-096-097-121300-
SOUTH MIDDLE TENNESSEE

CITY           SKY/WX    TMP DP  RH WIND       PRES   REMARKS
FAYETTEVILLE   CLOUDY    36  28  75 SE3       30.12S
TULLAHOMA      CLEAR     30  27  86 CALM      30.14R
WINCHESTER     CLOUDY    36  27  69 CALM      30.14R
MCMINNVILLE    PTCLDY    34  27  75 NE5       30.13S WCI  30
COLUMBIA       MOCLDY    32  28  86 CALM      30.14F
SHELBYVILLE    CLOUDY    34  28  80 CALM      30.16S
$$

TNZ017-018-042-046-047-121300-
NORTHEAST TENNESSEE

CITY           SKY/WX    TMP DP  RH WIND       PRES   REMARKS
TRI CITIES     CLOUDY    28  20  71 CALM      30.11F
$$

TNZ012-013-036-069-073-074-121300-
CENTRAL EAST TENNESSEE

CITY           SKY/WX    TMP DP  RH WIND       PRES   REMARKS
KNOXVILLE      LGT SNOW  29  26  89 NW3       30.17R FOG
OAK RIDGE      LGT SNOW  31  23  72 CALM      30.18S
GATLINBURG     CLOUDY    28  23  80 SW5       30.15R WCI  23
MORRISTOWN     CLOUDY    30  19  64 CALM      30.12R
$$

TNZ083-085-099-121300-
SOUTHEAST TENNESSEE

CITY           SKY/WX    TMP DP  RH WIND       PRES   REMARKS
CHATTANOOGA    CLOUDY    35  23  61 CALM      30.18R
$$

SKY/WX REPORTED AS FAIR MEANS FEW OR NO CLOUDS BELOW
12 THOUSAND FEET.





USA.gov is the U.S. government's official web portal to all federal, state and local government web resources and services.